Time,TemperatureF,DewpointF,PressureIn,WindDirection,WindDirectionDegrees,WindSpeedMPH,WindSpeedGustMPH,Humidity,HourlyPrecipIn,Conditions,Clouds,dailyrainin,SoftwareType,DateUTC
2013-07-12 00:01:00,72.0,59.1,29.74,North,5,0.0,0.0,64,0.00,,CLR,0.00,VWS V13.01,2013-07-12 04:01:00,
2013-07-12 00:02:00,72.0,59.1,29.74,North,5,0.0,0.0,64,0.00,,CLR,0.00,VWS V13.01,2013-07-12 04:02:00,
2013-07-12 00:03:00,71.8,59.0,29.74,North,5,0.0,0.0,64,0.00,,CLR,0.00,VWS V13.01,2013-07-12 04:03:00,
2013-07-12 00:08:00,71.6,58.8,29.74,North,5,0.0,0.0,64,0.00,,CLR,0.00,VWS V13.01,2013-07-12 04:08:00,
2013-07-12 00:09:00,71.6,58.8,29.74,North,5,0.0,0.0,64,0.00,,CLR,0.00,VWS V13.01,2013-07-12 04:09:00,
2013-07-12 00:13:00,71.4,58.6,29.74,North,5,0.0,0.0,64,0.00,,CLR,0.00,VWS V13.01,2013-07-12 04:13:00,
2013-07-12 00:18:00,71.4,59.0,29.74,North,5,0.0,0.0,65,0.00,,CLR,0.00,VWS V13.01,2013-07-12 04:18:00,
2013-07-12 00:23:00,71.2,59.3,29.74,North,5,0.0,0.0,66,0.00,,CLR,0.00,VWS V13.01,2013-07-12 04:23:00,
2013-07-12 00:28:00,71.2,59.7,29.74,North,5,0.0,0.0,67,0.00,,CLR,0.00,VWS V13.01,2013-07-12 04:28:00,
2013-07-12 00:34:00,71.2,60.6,29.74,North,5,0.0,0.0,69,0.00,,CLR,0.00,VWS V13.01,2013-07-12 04:34:00,
2013-07-12 00:39:00,71.1,61.2,29.74,North,5,0.0,0.0,71,0.00,,CLR,0.00,VWS V13.01,2013-07-12 04:39:00,
2013-07-12 00:44:00,71.1,61.2,29.74,North,5,0.0,0.0,71,0.00,,CLR,0.00,VWS V13.01,2013-07-12 04:44:00,
2013-07-12 00:49:00,71.1,61.6,29.74,North,5,0.0,0.0,72,0.00,,CLR,0.00,VWS V13.01,2013-07-12 04:49:00,
2013-07-12 00:54:00,71.2,61.8,29.74,North,5,0.0,0.0,72,0.00,,CLR,0.00,VWS V13.01,2013-07-12 04:54:00,
2013-07-12 00:59:00,71.2,61.8,29.74,North,5,0.0,0.0,72,0.00,,CLR,0.00,VWS V13.01,2013-07-12 04:59:00,
2013-07-12 01:04:00,71.1,61.2,29.74,North,5,0.0,0.0,71,0.00,,BKN050,0.00,VWS V13.01,2013-07-12 05:04:00,
2013-07-12 01:09:00,71.1,61.2,29.74,North,5,0.0,0.0,71,0.00,,BKN050,0.00,VWS V13.01,2013-07-12 05:09:00,
2013-07-12 01:14:00,71.1,61.6,29.74,North,5,0.0,0.0,72,0.00,,BKN050,0.00,VWS V13.01,2013-07-12 05:14:00,
2013-07-12 01:19:00,70.9,61.4,29.74,North,5,0.0,0.0,72,0.00,,BKN050,0.00,VWS V13.01,2013-07-12 05:19:00,
2013-07-12 01:24:00,70.9,62.2,29.74,North,5,0.0,0.0,74,0.00,,BKN050,0.00,VWS V13.01,2013-07-12 05:24:00,
2013-07-12 01:29:00,70.7,62.0,29.74,North,5,0.0,0.0,74,0.00,,BKN050,0.00,VWS V13.01,2013-07-12 05:29:00,
2013-07-12 01:34:00,70.5,61.8,29.74,North,5,0.0,0.0,74,0.00,,BKN050,0.00,VWS V13.01,2013-07-12 05:34:00,
2013-07-12 01:39:00,70.3,61.7,29.74,North,5,0.0,0.0,74,0.00,,BKN050,0.00,VWS V13.01,2013-07-12 05:39:00,
2013-07-12 01:44:00,70.3,61.7,29.74,North,5,0.0,0.0,74,0.00,,BKN050,0.00,VWS V13.01,2013-07-12 05:44:00,
2013-07-12 01:49:00,70.3,61.7,29.74,North,5,0.0,0.0,74,0.00,,BKN050,0.00,VWS V13.01,2013-07-12 05:49:00,
2013-07-12 01:54:00,70.5,61.8,29.74,North,5,0.0,0.0,74,0.00,,BKN050,0.00,VWS V13.01,2013-07-12 05:54:00,
2013-07-12 01:59:00,70.3,61.7,29.74,North,5,0.0,0.0,74,0.00,,BKN050,0.00,VWS V13.01,2013-07-12 05:59:00,
2013-07-12 02:04:00,70.3,61.3,29.74,North,5,0.0,0.0,73,0.00,,SCT050,0.00,VWS V13.01,2013-07-12 06:04:00,
2013-07-12 02:09:00,70.2,61.1,29.74,North,5,0.0,0.0,73,0.00,,SCT050,0.00,VWS V13.01,2013-07-12 06:09:00,
2013-07-12 02:14:00,70.2,61.1,29.74,North,5,0.0,0.0,73,0.00,,SCT050,0.00,VWS V13.01,2013-07-12 06:14:00,
2013-07-12 02:19:00,70.2,61.1,29.74,North,5,0.0,0.0,73,0.00,,SCT050,0.00,VWS V13.01,2013-07-12 06:19:00,
2013-07-12 02:24:00,70.3,61.3,29.74,North,5,0.0,0.0,73,0.00,,SCT050,0.00,VWS V13.01,2013-07-12 06:24:00,
2013-07-12 02:29:00,70.3,61.3,29.74,North,5,0.0,0.0,73,0.00,,SCT050,0.00,VWS V13.01,2013-07-12 06:29:00,
2013-07-12 02:34:00,70.5,61.8,29.74,North,5,0.0,0.0,74,0.00,,SCT050,0.00,VWS V13.01,2013-07-12 06:34:00,
2013-07-12 02:39:00,70.5,61.8,29.74,North,5,0.0,0.0,74,0.00,,SCT050,0.00,VWS V13.01,2013-07-12 06:39:00,
2013-07-12 02:44:00,70.5,61.8,29.74,North,5,0.0,0.0,74,0.00,,SCT050,0.00,VWS V13.01,2013-07-12 06:44:00,
2013-07-12 02:49:00,70.3,61.3,29.77,North,5,0.0,0.0,73,0.00,,SCT050,0.00,VWS V13.01,2013-07-12 06:49:00,
2013-07-12 02:54:00,70.3,61.7,29.77,North,5,0.0,0.0,74,0.00,,SCT050,0.00,VWS V13.01,2013-07-12 06:54:00,
2013-07-12 02:59:00,70.2,61.1,29.77,North,5,0.0,0.0,73,0.00,,SCT050,0.00,VWS V13.01,2013-07-12 06:59:00,
2013-07-12 03:04:00,70.0,60.9,29.74,North,5,0.0,0.0,73,0.00,,CLR,0.00,VWS V13.01,2013-07-12 07:04:00,
2013-07-12 03:09:00,70.0,60.9,29.74,North,5,0.0,0.0,73,0.00,,CLR,0.00,VWS V13.01,2013-07-12 07:09:00,
2013-07-12 03:15:00,69.6,60.6,29.74,North,5,0.0,0.0,73,0.00,,CLR,0.00,VWS V13.01,2013-07-12 07:15:00,
2013-07-12 03:20:00,69.6,60.6,29.74,North,5,0.0,0.0,73,0.00,,CLR,0.00,VWS V13.01,2013-07-12 07:20:00,
2013-07-12 03:25:00,69.4,60.4,29.74,North,5,0.0,0.0,73,0.00,,CLR,0.00,VWS V13.01,2013-07-12 07:25:00,
2013-07-12 03:30:00,69.4,60.4,29.74,North,5,0.0,0.0,73,0.00,,CLR,0.00,VWS V13.01,2013-07-12 07:30:00,
2013-07-12 03:35:00,69.4,60.4,29.77,North,5,0.0,0.0,73,0.00,,CLR,0.00,VWS V13.01,2013-07-12 07:35:00,
2013-07-12 03:40:00,69.4,60.4,29.77,North,5,0.0,0.0,73,0.00,,CLR,0.00,VWS V13.01,2013-07-12 07:40:00,
2013-07-12 03:45:00,69.4,60.4,29.77,North,5,0.0,0.0,73,0.00,,CLR,0.00,VWS V13.01,2013-07-12 07:45:00,
2013-07-12 03:50:00,69.4,60.8,29.77,North,5,0.0,0.0,74,0.00,,CLR,0.00,VWS V13.01,2013-07-12 07:50:00,
2013-07-12 03:55:00,69.4,60.8,29.77,North,5,0.0,0.0,74,0.00,,CLR,0.00,VWS V13.01,2013-07-12 07:55:00,
2013-07-12 04:00:00,69.4,60.8,29.77,North,5,0.0,0.0,74,0.00,,CLR,0.00,VWS V13.01,2013-07-12 08:00:00,
2013-07-12 04:05:00,69.6,61.3,29.77,North,5,0.0,0.0,75,0.00,,BKN070,0.00,VWS V13.01,2013-07-12 08:05:00,
2013-07-12 04:10:00,69.4,61.5,29.77,North,5,0.0,0.0,76,0.00,,BKN070,0.00,VWS V13.01,2013-07-12 08:10:00,
2013-07-12 04:15:00,69.4,61.5,29.77,North,5,0.0,0.0,76,0.00,,BKN070,0.00,VWS V13.01,2013-07-12 08:15:00,
2013-07-12 04:20:00,69.4,61.2,29.77,North,5,0.0,0.0,75,0.00,,BKN070,0.00,VWS V13.01,2013-07-12 08:20:00,
2013-07-12 04:25:00,69.3,61.0,29.77,North,5,0.0,0.0,75,0.00,,BKN070,0.00,VWS V13.01,2013-07-12 08:25:00,
2013-07-12 04:30:00,69.3,60.6,29.77,North,5,0.0,0.0,74,0.00,,BKN070,0.00,VWS V13.01,2013-07-12 08:30:00,
2013-07-12 04:35:00,69.3,60.6,29.77,North,5,0.0,0.0,74,0.00,,BKN070,0.00,VWS V13.01,2013-07-12 08:35:00,
2013-07-12 04:40:00,69.3,60.6,29.77,North,5,0.0,0.0,74,0.00,,BKN070,0.00,VWS V13.01,2013-07-12 08:40:00,
2013-07-12 04:45:00,69.3,60.6,29.77,North,5,0.0,0.0,74,0.00,,BKN070,0.00,VWS V13.01,2013-07-12 08:45:00,
2013-07-12 04:50:00,69.3,60.2,29.77,North,5,0.0,0.0,73,0.00,,BKN070,0.00,VWS V13.01,2013-07-12 08:50:00,
2013-07-12 04:55:00,69.3,60.2,29.77,North,5,0.0,0.0,73,0.00,,BKN070,0.00,VWS V13.01,2013-07-12 08:55:00,
2013-07-12 05:00:00,69.1,59.7,29.77,North,5,0.0,0.0,72,0.00,,SCT080,0.00,VWS V13.01,2013-07-12 09:00:00,
2013-07-12 05:05:00,69.3,59.9,29.77,North,5,0.0,0.0,72,0.00,,SCT080,0.00,VWS V13.01,2013-07-12 09:05:00,
2013-07-12 05:10:00,69.1,59.7,29.77,North,5,0.0,0.0,72,0.00,,SCT080,0.00,VWS V13.01,2013-07-12 09:10:00,
2013-07-12 05:15:00,69.1,59.7,29.77,North,5,0.0,0.0,72,0.00,,SCT080,0.00,VWS V13.01,2013-07-12 09:15:00,
2013-07-12 05:20:00,68.9,59.5,29.77,North,5,0.0,0.0,72,0.00,,SCT080,0.00,VWS V13.01,2013-07-12 09:20:00,
2013-07-12 05:25:00,68.9,59.5,29.77,North,5,0.0,0.0,72,0.00,,SCT080,0.00,VWS V13.01,2013-07-12 09:25:00,
2013-07-12 05:30:00,68.9,59.5,29.77,North,5,0.0,0.0,72,0.00,,SCT080,0.00,VWS V13.01,2013-07-12 09:30:00,
2013-07-12 05:35:00,68.9,59.5,29.77,North,5,0.0,0.0,72,0.00,,SCT080,0.00,VWS V13.01,2013-07-12 09:35:00,
2013-07-12 05:40:00,68.9,59.5,29.77,North,5,0.0,0.0,72,0.00,,SCT080,0.00,VWS V13.01,2013-07-12 09:40:00,
2013-07-12 05:45:00,68.9,59.5,29.77,North,5,0.0,0.0,72,0.00,,SCT080,0.00,VWS V13.01,2013-07-12 09:45:00,
2013-07-12 05:51:00,68.9,59.5,29.77,North,5,0.0,0.0,72,0.00,,SCT080,0.00,VWS V13.01,2013-07-12 09:51:00,
2013-07-12 05:56:00,68.9,59.9,29.77,North,5,0.0,0.0,73,0.00,,SCT080,0.00,VWS V13.01,2013-07-12 09:56:00,
2013-07-12 06:01:00,68.9,59.9,29.77,North,5,0.0,0.0,73,0.00,,SCT075,0.00,VWS V13.01,2013-07-12 10:01:00,
2013-07-12 06:06:00,68.9,59.9,29.80,North,5,0.0,0.0,73,0.00,,SCT075,0.00,VWS V13.01,2013-07-12 10:06:00,
2013-07-12 06:11:00,68.9,59.9,29.80,North,5,0.0,0.0,73,0.00,,SCT075,0.00,VWS V13.01,2013-07-12 10:11:00,
2013-07-12 06:16:00,69.1,59.7,29.80,North,5,0.0,0.0,72,0.00,,SCT075,0.00,VWS V13.01,2013-07-12 10:16:00,
2013-07-12 06:21:00,69.1,59.7,29.80,North,5,0.0,0.0,72,0.00,,SCT075,0.00,VWS V13.01,2013-07-12 10:21:00,
2013-07-12 06:26:00,69.1,59.3,29.80,North,5,0.0,0.0,71,0.00,,SCT075,0.00,VWS V13.01,2013-07-12 10:26:00,
2013-07-12 06:31:00,69.3,59.1,29.80,North,5,0.0,0.0,70,0.00,,SCT075,0.00,VWS V13.01,2013-07-12 10:31:00,
2013-07-12 06:36:00,69.4,59.2,29.80,North,5,0.0,0.0,70,0.00,,SCT075,0.00,VWS V13.01,2013-07-12 10:36:00,
2013-07-12 06:41:00,69.3,59.1,29.80,North,5,0.0,0.0,70,0.00,,SCT075,0.00,VWS V13.01,2013-07-12 10:41:00,
2013-07-12 06:46:00,69.4,58.4,29.80,SSW,210,7.2,8.9,68,0.00,,SCT075,0.00,VWS V13.01,2013-07-12 10:46:00,
2013-07-12 06:51:00,69.6,58.2,29.80,SSW,206,0.0,5.4,67,0.00,,SCT075,0.00,VWS V13.01,2013-07-12 10:51:00,
2013-07-12 06:56:00,69.8,57.9,29.80,SSW,193,0.0,0.0,66,0.00,,SCT075,0.00,VWS V13.01,2013-07-12 10:56:00,
2013-07-12 07:01:00,69.8,57.9,29.80,SSW,193,0.0,0.0,66,0.00,,BKN060,0.00,VWS V13.01,2013-07-12 11:01:00,
2013-07-12 07:06:00,69.8,57.5,29.80,NNE,24,0.0,0.0,65,0.00,,BKN060,0.00,VWS V13.01,2013-07-12 11:06:00,
2013-07-12 07:11:00,69.8,57.9,29.80,NNE,24,0.0,0.0,66,0.00,,BKN060,0.00,VWS V13.01,2013-07-12 11:11:00,
2013-07-12 07:16:00,69.8,57.9,29.80,NNE,24,0.0,0.0,66,0.00,,BKN060,0.00,VWS V13.01,2013-07-12 11:16:00,
2013-07-12 07:21:00,69.8,58.4,29.80,NNE,24,0.0,0.0,67,0.00,,BKN060,0.00,VWS V13.01,2013-07-12 11:21:00,
2013-07-12 07:26:00,70.0,58.1,29.80,SE,124,0.0,0.0,66,0.00,,BKN060,0.00,VWS V13.01,2013-07-12 11:26:00,
2013-07-12 07:31:00,70.2,57.9,29.80,South,171,0.0,0.0,65,0.00,,BKN060,0.00,VWS V13.01,2013-07-12 11:31:00,
2013-07-12 07:36:00,70.3,58.0,29.80,South,171,0.0,0.0,65,0.00,,BKN060,0.00,VWS V13.01,2013-07-12 11:36:00,
2013-07-12 07:41:00,70.5,57.8,29.80,South,171,0.0,0.0,64,0.00,,BKN060,0.00,VWS V13.01,2013-07-12 11:41:00,
2013-07-12 07:46:00,70.7,57.9,29.80,South,171,0.0,0.0,64,0.00,,BKN060,0.00,VWS V13.01,2013-07-12 11:46:00,
2013-07-12 07:51:00,70.5,57.3,29.80,NE,39,0.0,7.2,63,0.00,,BKN060,0.00,VWS V13.01,2013-07-12 11:51:00,
2013-07-12 07:56:00,70.7,57.1,29.80,NE,37,0.0,5.4,62,0.00,,BKN060,0.00,VWS V13.01,2013-07-12 11:56:00,
2013-07-12 08:01:00,70.9,57.7,29.80,NE,37,0.0,0.0,63,0.00,,CLR,0.00,VWS V13.01,2013-07-12 12:01:00,
2013-07-12 08:06:00,71.1,57.4,29.80,NE,51,0.0,0.0,62,0.00,,CLR,0.00,VWS V13.01,2013-07-12 12:06:00,
2013-07-12 08:11:00,71.1,57.8,29.80,NE,51,0.0,0.0,63,0.00,,CLR,0.00,VWS V13.01,2013-07-12 12:11:00,
2013-07-12 08:16:00,71.1,58.3,29.80,NE,51,0.0,0.0,64,0.00,,CLR,0.00,VWS V13.01,2013-07-12 12:16:00,
2013-07-12 08:21:00,71.2,58.0,29.80,NNE,31,0.0,5.4,63,0.00,,CLR,0.00,VWS V13.01,2013-07-12 12:21:00,
2013-07-12 08:27:00,71.6,58.3,29.80,NNE,31,0.0,0.0,63,0.00,,CLR,0.00,VWS V13.01,2013-07-12 12:27:00,
2013-07-12 08:32:00,71.6,57.0,29.80,NE,51,0.0,7.2,60,0.00,,CLR,0.00,VWS V13.01,2013-07-12 12:32:00,
2013-07-12 08:37:00,72.0,57.8,29.80,SE,138,0.0,0.0,61,0.00,,CLR,0.00,VWS V13.01,2013-07-12 12:37:00,
2013-07-12 08:42:00,72.1,58.0,29.80,SE,138,0.0,0.0,61,0.00,,CLR,0.00,VWS V13.01,2013-07-12 12:42:00,
2013-07-12 08:47:00,72.1,58.0,29.80,SE,138,0.0,0.0,61,0.00,,CLR,0.00,VWS V13.01,2013-07-12 12:47:00,
2013-07-12 08:52:00,72.1,58.0,29.80,SE,138,0.0,0.0,61,0.00,,CLR,0.00,VWS V13.01,2013-07-12 12:52:00,
2013-07-12 08:57:00,72.1,58.0,29.80,ESE,116,0.0,6.3,61,0.00,,CLR,0.00,VWS V13.01,2013-07-12 12:57:00,
2013-07-12 09:02:00,72.5,58.3,29.80,ESE,117,0.0,0.0,61,0.00,,SCT075,0.00,VWS V13.01,2013-07-12 13:02:00,
2013-07-12 09:07:00,72.5,58.8,29.80,North,0,8.1,8.1,62,0.00,,SCT075,0.00,VWS V13.01,2013-07-12 13:07:00,
2013-07-12 09:12:00,72.1,57.5,29.80,West,270,0.0,0.0,60,0.00,,SCT075,0.00,VWS V13.01,2013-07-12 13:12:00,
2013-07-12 09:17:00,72.1,57.0,29.80,NNE,20,0.0,6.3,59,0.00,,SCT075,0.00,VWS V13.01,2013-07-12 13:17:00,
2013-07-12 09:22:00,71.8,57.2,29.83,NNE,20,0.0,0.0,60,0.00,,SCT075,0.00,VWS V13.01,2013-07-12 13:22:00,
2013-07-12 09:27:00,71.8,58.1,29.83,NNE,20,0.0,0.0,62,0.00,,SCT075,0.00,VWS V13.01,2013-07-12 13:27:00,
2013-07-12 09:32:00,71.6,57.9,29.83,ENE,64,0.0,0.0,62,0.00,,SCT075,0.00,VWS V13.01,2013-07-12 13:32:00,
2013-07-12 09:37:00,71.4,57.3,29.80,NE,52,0.0,0.0,61,0.00,,SCT075,0.00,VWS V13.01,2013-07-12 13:37:00,
2013-07-12 09:42:00,71.4,57.7,29.80,NNW,347,0.0,0.0,62,0.00,,SCT075,0.00,VWS V13.01,2013-07-12 13:42:00,
2013-07-12 09:47:00,71.2,58.0,29.80,NNW,347,0.0,0.0,63,0.00,,SCT075,0.00,VWS V13.01,2013-07-12 13:47:00,
2013-07-12 09:52:00,71.2,58.5,29.83,NNW,347,0.0,0.0,64,0.00,,SCT075,0.00,VWS V13.01,2013-07-12 13:52:00,
2013-07-12 09:57:00,71.2,59.3,29.83,NNW,347,0.0,0.0,66,0.00,,SCT075,0.00,VWS V13.01,2013-07-12 13:57:00,
2013-07-12 10:02:00,71.1,59.1,29.83,NNW,347,0.0,0.0,66,0.00,,BKN065,0.00,VWS V13.01,2013-07-12 14:02:00,
2013-07-12 10:08:00,70.9,59.4,29.83,NNW,347,0.0,0.0,67,0.00,,BKN065,0.00,VWS V13.01,2013-07-12 14:08:00,
2013-07-12 10:13:00,71.1,59.6,29.83,NNW,347,0.0,0.0,67,0.00,,BKN065,0.00,VWS V13.01,2013-07-12 14:13:00,
2013-07-12 10:18:00,71.2,60.2,29.83,NNW,347,0.0,0.0,68,0.00,,BKN065,0.00,VWS V13.01,2013-07-12 14:18:00,
2013-07-12 10:23:00,71.6,60.1,29.83,NNW,347,0.0,0.0,67,0.00,,BKN065,0.00,VWS V13.01,2013-07-12 14:23:00,
2013-07-12 10:28:00,71.8,59.4,29.83,NNW,347,0.0,0.0,65,0.00,,BKN065,0.00,VWS V13.01,2013-07-12 14:28:00,
2013-07-12 10:33:00,72.1,59.3,29.83,NNW,347,0.0,0.0,64,0.00,,BKN065,0.00,VWS V13.01,2013-07-12 14:33:00,
2013-07-12 10:38:00,72.3,59.5,29.83,NNW,347,0.0,0.0,64,0.00,,BKN065,0.00,VWS V13.01,2013-07-12 14:38:00,
2013-07-12 10:43:00,72.7,58.9,29.83,NNW,347,0.0,0.0,62,0.00,,BKN065,0.00,VWS V13.01,2013-07-12 14:43:00,
2013-07-12 10:48:00,73.0,59.3,29.83,NNW,347,0.0,0.0,62,0.00,,BKN065,0.00,VWS V13.01,2013-07-12 14:48:00,
2013-07-12 10:54:00,72.9,59.1,29.83,NNE,15,0.0,6.3,62,0.00,,BKN065,0.04,VWS V13.01,2013-07-12 14:54:00,
2013-07-12 10:59:00,72.3,60.3,29.83,WNW,298,0.0,0.0,66,0.20,,BKN065,0.20,VWS V13.01,2013-07-12 14:59:00,
2013-07-12 11:04:00,71.6,60.5,29.83,WNW,298,0.0,0.0,68,0.20,,BKN090,0.20,VWS V13.01,2013-07-12 15:04:00,
2013-07-12 11:09:00,71.6,61.3,29.83,WNW,298,0.0,0.0,70,0.20,,BKN090,0.20,VWS V13.01,2013-07-12 15:09:00,
2013-07-12 11:14:00,72.0,62.8,29.83,WNW,298,0.0,0.0,73,0.20,,BKN090,0.20,VWS V13.01,2013-07-12 15:14:00,
2013-07-12 11:19:00,72.3,64.0,29.83,WNW,298,0.0,0.0,75,0.20,,BKN090,0.20,VWS V13.01,2013-07-12 15:19:00,
2013-07-12 11:24:00,72.9,64.5,29.83,WNW,298,0.0,0.0,75,0.20,,BKN090,0.20,VWS V13.01,2013-07-12 15:24:00,
2013-07-12 11:29:00,73.2,65.2,29.83,WNW,298,0.0,0.0,76,0.20,,BKN090,0.20,VWS V13.01,2013-07-12 15:29:00,
2013-07-12 11:34:00,73.8,65.7,29.83,WNW,298,0.0,0.0,76,0.20,,BKN090,0.20,VWS V13.01,2013-07-12 15:34:00,
2013-07-12 11:39:00,73.9,65.5,29.83,WNW,298,0.0,0.0,75,0.20,,BKN090,0.20,VWS V13.01,2013-07-12 15:39:00,
2013-07-12 11:44:00,73.9,65.1,29.83,WNW,298,0.0,0.0,74,0.20,,BKN090,0.20,VWS V13.01,2013-07-12 15:44:00,
2013-07-12 11:49:00,73.9,65.1,29.83,WNW,298,0.0,0.0,74,0.20,,BKN090,0.20,VWS V13.01,2013-07-12 15:49:00,
2013-07-12 11:54:00,74.1,65.7,29.83,WNW,298,0.0,0.0,75,0.20,,BKN090,0.20,VWS V13.01,2013-07-12 15:54:00,
2013-07-12 11:59:00,74.3,65.9,29.83,WNW,299,0.0,0.0,75,0.20,,BKN090,0.20,VWS V13.01,2013-07-12 15:59:00,
2013-07-12 12:04:00,74.1,66.1,29.83,North,0,0.0,7.2,76,0.00,,BKN090,0.20,VWS V13.01,2013-07-12 16:04:00,
2013-07-12 12:09:00,73.8,65.0,29.83,ESE,108,0.0,0.0,74,0.00,,BKN090,0.20,VWS V13.01,2013-07-12 16:09:00,
2013-07-12 12:14:00,73.9,65.1,29.83,ESE,107,0.0,6.3,74,0.00,,BKN090,0.20,VWS V13.01,2013-07-12 16:14:00,
2013-07-12 12:19:00,74.1,65.7,29.83,ESE,108,0.0,0.0,75,0.00,,BKN090,0.20,VWS V13.01,2013-07-12 16:19:00,
2013-07-12 12:24:00,74.3,65.5,29.83,NE,48,0.0,8.9,74,0.00,,BKN090,0.20,VWS V13.01,2013-07-12 16:24:00,
2013-07-12 12:29:00,74.3,65.5,29.83,NNE,28,0.0,0.0,74,0.00,,BKN090,0.20,VWS V13.01,2013-07-12 16:29:00,
2013-07-12 12:34:00,74.3,65.5,29.83,NNE,28,0.0,0.0,74,0.00,,BKN090,0.20,VWS V13.01,2013-07-12 16:34:00,
2013-07-12 12:39:00,74.1,64.9,29.83,NNE,17,0.0,6.3,73,0.00,,BKN090,0.20,VWS V13.01,2013-07-12 16:39:00,
2013-07-12 12:44:00,74.1,65.3,29.83,North,11,0.0,0.0,74,0.00,,BKN090,0.20,VWS V13.01,2013-07-12 16:44:00,
2013-07-12 12:49:00,74.1,65.7,29.83,NE,42,5.4,7.2,75,0.00,,BKN090,0.20,VWS V13.01,2013-07-12 16:49:00,
2013-07-12 12:55:00,74.1,65.3,29.83,SE,125,0.0,0.0,74,0.00,,BKN090,0.20,VWS V13.01,2013-07-12 16:55:00,
2013-07-12 13:01:00,73.9,64.8,29.83,North,4,0.0,7.2,73,0.00,,OVC080,0.20,VWS V13.01,2013-07-12 17:01:00,
2013-07-12 13:07:00,73.9,65.1,29.83,North,4,0.0,0.0,74,0.00,,OVC080,0.20,VWS V13.01,2013-07-12 17:07:00,
2013-07-12 13:13:00,73.9,65.5,29.83,NW,304,6.3,6.3,75,0.00,,OVC080,0.20,VWS V13.01,2013-07-12 17:13:00,
2013-07-12 13:18:00,73.9,64.8,29.83,SE,124,0.0,0.0,73,0.00,,OVC080,0.20,VWS V13.01,2013-07-12 17:18:00,
2013-07-12 13:23:00,74.3,65.5,29.83,NE,41,0.0,0.0,74,0.00,,OVC080,0.20,VWS V13.01,2013-07-12 17:23:00,
2013-07-12 13:28:00,74.5,64.5,29.83,North,0,5.4,6.3,71,0.00,,OVC080,0.20,VWS V13.01,2013-07-12 17:28:00,
2013-07-12 13:34:00,74.8,64.8,29.83,NE,35,5.4,6.3,71,0.00,,OVC080,0.20,VWS V13.01,2013-07-12 17:34:00,
2013-07-12 13:39:00,75.2,64.3,29.83,NNE,20,0.0,0.0,69,0.00,,OVC080,0.20,VWS V13.01,2013-07-12 17:39:00,
2013-07-12 13:44:00,75.2,62.6,29.83,NW,321,6.3,8.1,65,0.00,,OVC080,0.20,VWS V13.01,2013-07-12 17:44:00,
2013-07-12 13:49:00,75.6,63.0,29.83,NW,325,0.0,0.0,65,0.00,,OVC080,0.20,VWS V13.01,2013-07-12 17:49:00,
2013-07-12 13:55:00,75.7,63.2,29.83,NNW,334,0.0,6.3,65,0.00,,OVC080,0.20,VWS V13.01,2013-07-12 17:55:00,
2013-07-12 14:00:00,75.7,61.8,29.83,NNW,335,0.0,6.3,62,0.00,,OVC080,0.20,VWS V13.01,2013-07-12 18:00:00,
2013-07-12 14:06:00,75.9,61.5,29.83,NE,54,0.0,8.9,61,0.00,,-RA,0.20,VWS V13.01,2013-07-12 18:06:00,
2013-07-12 14:11:00,76.3,62.8,29.83,North,5,0.0,5.4,63,0.00,,-RA,0.20,VWS V13.01,2013-07-12 18:11:00,
2013-07-12 14:16:00,76.3,62.3,29.83,ENE,69,0.0,9.8,62,0.00,,-RA,0.20,VWS V13.01,2013-07-12 18:16:00,
2013-07-12 14:21:00,76.3,61.9,29.83,NW,322,8.9,10.7,61,0.00,,-RA,0.20,VWS V13.01,2013-07-12 18:21:00,
2013-07-12 14:28:00,76.1,61.7,29.83,NNE,19,0.0,7.2,61,0.00,,-RA,0.20,VWS V13.01,2013-07-12 18:28:00,
2013-07-12 14:33:00,75.9,61.0,29.83,NW,322,0.0,10.7,60,0.00,,-RA,0.20,VWS V13.01,2013-07-12 18:33:00,
2013-07-12 14:38:00,76.1,63.0,29.83,WSW,257,5.4,6.3,64,0.00,,-RA,0.20,VWS V13.01,2013-07-12 18:38:00,
2013-07-12 14:45:00,76.3,61.9,29.83,NNE,26,0.0,9.8,61,0.00,,-RA,0.20,VWS V13.01,2013-07-12 18:45:00,
2013-07-12 14:50:00,76.1,61.2,29.83,NNE,12,5.4,8.9,60,0.00,,-RA,0.20,VWS V13.01,2013-07-12 18:50:00,
2013-07-12 14:56:00,76.1,61.2,29.83,North,0,0.0,7.2,60,0.00,,-RA,0.20,VWS V13.01,2013-07-12 18:56:00,
2013-07-12 15:01:00,76.6,62.2,29.83,North,0,0.0,0.0,61,0.00,,OVC100,0.20,VWS V13.01,2013-07-12 19:01:00,
2013-07-12 15:06:00,76.6,61.7,29.83,North,4,0.0,7.2,60,0.00,,OVC100,0.20,VWS V13.01,2013-07-12 19:06:00,
2013-07-12 15:12:00,76.5,61.6,29.83,NNE,22,8.9,9.8,60,0.00,,OVC100,0.20,VWS V13.01,2013-07-12 19:12:00,
2013-07-12 15:18:00,76.5,62.9,29.83,NNE,30,0.0,0.0,63,0.00,,OVC100,0.20,VWS V13.01,2013-07-12 19:18:00,
2013-07-12 15:26:00,76.3,62.3,29.83,North,0,8.1,11.6,62,0.00,,OVC100,0.20,VWS V13.01,2013-07-12 19:26:00,
2013-07-12 15:33:00,76.1,63.0,29.83,North,10,0.0,5.4,64,0.00,,OVC100,0.20,VWS V13.01,2013-07-12 19:33:00,
2013-07-12 15:40:00,76.3,63.2,29.83,NE,42,0.0,6.3,64,0.00,,OVC100,0.20,VWS V13.01,2013-07-12 19:40:00,
2013-07-12 15:45:00,76.3,64.1,29.83,East,86,5.4,7.2,66,0.00,,OVC100,0.20,VWS V13.01,2013-07-12 19:45:00,
2013-07-12 15:51:00,75.6,62.5,29.83,NW,323,0.0,8.1,64,0.00,,OVC100,0.20,VWS V13.01,2013-07-12 19:51:00,
2013-07-12 15:57:00,75.4,64.5,29.83,West,260,0.0,5.4,69,0.00,,OVC100,0.20,VWS V13.01,2013-07-12 19:57:00,
2013-07-12 16:03:00,75.0,64.2,29.83,West,260,0.0,0.0,69,0.00,,-RA,0.20,VWS V13.01,2013-07-12 20:03:00,
2013-07-12 16:08:00,74.8,64.4,29.83,NW,319,0.0,7.2,70,0.00,,-RA,0.20,VWS V13.01,2013-07-12 20:08:00,
2013-07-12 16:14:00,74.7,65.0,29.83,NNW,339,0.0,0.0,72,0.04,,-RA,0.24,VWS V13.01,2013-07-12 20:14:00,
2013-07-12 16:19:00,74.5,65.3,29.83,NNE,22,6.3,7.2,73,0.04,,-RA,0.24,VWS V13.01,2013-07-12 20:19:00,
2013-07-12 16:25:00,74.3,65.5,29.83,North,8,0.0,0.0,74,0.04,,-RA,0.24,VWS V13.01,2013-07-12 20:25:00,
2013-07-12 16:30:00,74.5,66.0,29.83,NNE,13,0.0,7.2,75,0.04,,-RA,0.24,VWS V13.01,2013-07-12 20:30:00,
2013-07-12 16:36:00,74.1,66.5,29.83,NNE,13,0.0,0.0,77,0.04,,-RA,0.24,VWS V13.01,2013-07-12 20:36:00,
2013-07-12 16:42:00,73.9,66.7,29.83,NNE,13,0.0,0.0,78,0.04,,-RA,0.24,VWS V13.01,2013-07-12 20:42:00,
2013-07-12 16:47:00,73.8,66.8,29.83,SE,134,0.0,5.4,79,0.04,,-RA,0.24,VWS V13.01,2013-07-12 20:47:00,
2013-07-12 16:52:00,73.4,66.5,29.83,NE,55,0.0,0.0,79,0.04,,-RA,0.24,VWS V13.01,2013-07-12 20:52:00,
2013-07-12 16:57:00,73.4,67.2,29.83,NE,55,0.0,0.0,81,0.04,,-RA,0.24,VWS V13.01,2013-07-12 20:57:00,
2013-07-12 17:03:00,73.2,67.4,29.83,ENE,67,0.0,6.3,82,0.04,,-RA,0.24,VWS V13.01,2013-07-12 21:03:00,
2013-07-12 17:08:00,73.2,67.8,29.83,NNE,14,0.0,0.0,83,0.08,,-RA,0.28,VWS V13.01,2013-07-12 21:08:00,
2013-07-12 17:14:00,73.0,67.9,29.83,East,83,0.0,8.1,84,0.04,,-RA,0.28,VWS V13.01,2013-07-12 21:14:00,
2013-07-12 17:20:00,73.0,68.3,29.83,SSW,194,5.4,8.9,85,0.04,,-RA,0.28,VWS V13.01,2013-07-12 21:20:00,
2013-07-12 17:25:00,72.9,68.1,29.83,SSW,206,0.0,0.0,85,0.04,,-RA,0.28,VWS V13.01,2013-07-12 21:25:00,
2013-07-12 17:31:00,72.7,68.3,29.83,North,351,0.0,0.0,86,0.04,,-RA,0.28,VWS V13.01,2013-07-12 21:31:00,
2013-07-12 17:39:00,72.7,68.3,29.83,NNW,346,0.0,0.0,86,0.04,,-RA,0.28,VWS V13.01,2013-07-12 21:39:00,
2013-07-12 17:46:00,72.9,68.4,29.83,NNW,346,0.0,0.0,86,0.08,,-RA,0.31,VWS V13.01,2013-07-12 21:46:00,
2013-07-12 17:52:00,72.9,68.8,29.83,North,351,0.0,0.0,87,0.08,,-RA,0.31,VWS V13.01,2013-07-12 21:52:00,
2013-07-12 17:57:00,72.5,68.8,29.83,ENE,61,8.1,8.1,88,0.08,,-RA,0.31,VWS V13.01,2013-07-12 21:57:00,
2013-07-12 18:02:00,72.3,68.9,29.83,NNE,22,5.4,6.3,89,0.12,,-RA,0.35,VWS V13.01,2013-07-12 22:02:00,
2013-07-12 18:08:00,72.1,68.7,29.83,NE,34,0.0,8.1,89,0.12,,-RA,0.35,VWS V13.01,2013-07-12 22:08:00,
2013-07-12 18:13:00,72.0,68.9,29.83,NNE,17,0.0,7.2,90,0.12,,-RA,0.39,VWS V13.01,2013-07-12 22:13:00,
2013-07-12 18:18:00,71.8,69.0,29.83,NNE,28,0.0,11.6,91,0.16,,-RA,0.43,VWS V13.01,2013-07-12 22:18:00,
2013-07-12 18:23:00,71.6,68.8,29.83,NNE,20,8.1,9.8,91,0.16,,-RA,0.43,VWS V13.01,2013-07-12 22:23:00,
2013-07-12 18:29:00,71.4,69.0,29.83,North,11,0.0,6.3,92,0.20,,-RA,0.47,VWS V13.01,2013-07-12 22:29:00,
2013-07-12 18:35:00,71.4,69.3,29.83,NE,39,5.4,9.8,93,0.24,,-RA,0.51,VWS V13.01,2013-07-12 22:35:00,
2013-07-12 18:41:00,71.2,69.1,29.83,NNE,24,8.9,8.9,93,0.24,,-RA,0.51,VWS V13.01,2013-07-12 22:41:00,
2013-07-12 18:47:00,71.2,69.1,29.83,North,1,6.3,9.8,93,0.24,,-RA,0.51,VWS V13.01,2013-07-12 22:47:00,
2013-07-12 18:53:00,71.1,69.2,29.83,NW,320,0.0,10.7,94,0.20,,-RA,0.55,VWS V13.01,2013-07-12 22:53:00,
2013-07-12 18:58:00,70.9,69.1,29.83,North,1,8.9,10.7,94,0.24,,-RA,0.55,VWS V13.01,2013-07-12 22:58:00,
2013-07-12 19:03:00,70.9,69.1,29.83,ENE,63,14.8,14.8,94,0.24,,-RA,0.55,VWS V13.01,2013-07-12 23:03:00,
2013-07-12 19:09:00,70.7,68.9,29.83,North,3,0.0,11.6,94,0.24,,-RA,0.55,VWS V13.01,2013-07-12 23:09:00,
2013-07-12 19:14:00,70.7,69.2,29.83,WSW,249,0.0,5.4,95,0.16,,-RA,0.55,VWS V13.01,2013-07-12 23:14:00,
2013-07-12 19:20:00,70.7,69.2,29.83,NNE,13,0.0,6.3,95,0.16,,-RA,0.55,VWS V13.01,2013-07-12 23:20:00,
2013-07-12 19:25:00,70.7,69.2,29.83,NNE,18,5.4,8.1,95,0.16,,-RA,0.59,VWS V13.01,2013-07-12 23:25:00,
2013-07-12 19:31:00,70.5,69.0,29.83,SSE,157,0.0,5.4,95,0.12,,-RA,0.59,VWS V13.01,2013-07-12 23:31:00,
2013-07-12 19:36:00,70.5,69.3,29.83,NNE,29,13.9,13.9,96,0.12,,-RA,0.59,VWS V13.01,2013-07-12 23:36:00,
2013-07-12 19:43:00,70.5,69.3,29.83,NNE,33,9.8,15.7,96,0.12,,-RA,0.63,VWS V13.01,2013-07-12 23:43:00,
2013-07-12 19:49:00,70.3,69.2,29.83,NNE,26,8.1,10.7,96,0.12,,-RA,0.63,VWS V13.01,2013-07-12 23:49:00,
2013-07-12 19:54:00,70.2,69.0,29.83,NNW,342,9.8,14.8,96,0.12,,-RA,0.67,VWS V13.01,2013-07-12 23:54:00,
2013-07-12 20:00:00,70.2,69.0,29.83,NNE,21,6.3,13.9,96,0.16,,-RA,0.67,VWS V13.01,2013-07-13 00:00:00,
2013-07-12 20:07:00,70.0,69.1,29.83,NNE,23,6.3,10.7,97,0.16,, +RA,0.71,VWS V13.01,2013-07-13 00:07:00,
2013-07-12 20:13:00,70.0,69.1,29.83,NE,39,6.3,16.6,97,0.16,, +RA,0.71,VWS V13.01,2013-07-13 00:13:00,
2013-07-12 20:18:00,70.0,69.1,29.83,North,3,9.8,9.8,97,0.16,, +RA,0.71,VWS V13.01,2013-07-13 00:18:00,
2013-07-12 20:24:00,70.0,69.1,29.83,SSW,198,0.0,9.8,97,0.16,, +RA,0.75,VWS V13.01,2013-07-13 00:24:00,
2013-07-12 20:30:00,70.0,69.4,29.83,NNE,22,0.0,0.0,98,0.20,, +RA,0.75,VWS V13.01,2013-07-13 00:30:00,
2013-07-12 20:36:00,70.0,69.4,29.83,NE,51,0.0,10.7,98,0.20,, +RA,0.79,VWS V13.01,2013-07-13 00:36:00,
2013-07-12 20:41:00,70.0,69.4,29.83,NNE,17,6.3,11.6,98,0.20,, +RA,0.83,VWS V13.01,2013-07-13 00:41:00,
2013-07-12 20:48:00,70.0,69.4,29.83,NNE,13,0.0,5.4,98,0.20,, +RA,0.83,VWS V13.01,2013-07-13 00:48:00,
2013-07-12 20:55:00,70.0,69.7,29.83,NNE,17,13.4,13.4,99,0.28,, +RA,0.91,VWS V13.01,2013-07-13 00:55:00,
2013-07-12 21:03:00,70.0,69.7,29.83,North,7,5.4,7.2,99,0.24,, +RA,0.91,VWS V13.01,2013-07-13 01:03:00,
2013-07-12 21:08:00,70.0,69.7,29.83,NNE,18,6.3,6.3,99,0.28,, +RA,0.94,VWS V13.01,2013-07-13 01:08:00,
2013-07-12 21:14:00,70.0,69.7,29.83,NNE,24,6.3,14.8,99,0.28,, +RA,0.98,VWS V13.01,2013-07-13 01:14:00,
2013-07-12 21:20:00,70.0,69.7,29.83,North,351,0.0,5.4,99,0.31,, +RA,1.02,VWS V13.01,2013-07-13 01:20:00,
2013-07-12 21:25:00,69.8,69.5,29.83,North,11,10.7,12.5,99,0.31,, +RA,1.02,VWS V13.01,2013-07-13 01:25:00,
2013-07-12 21:32:00,69.8,69.5,29.83,North,351,8.1,15.7,99,0.31,, +RA,1.06,VWS V13.01,2013-07-13 01:32:00,
2013-07-12 21:38:00,69.6,69.3,29.83,NNE,18,9.8,10.7,99,0.31,, +RA,1.06,VWS V13.01,2013-07-13 01:38:00,
2013-07-12 21:43:00,69.6,69.3,29.83,North,351,0.0,7.2,99,0.28,, +RA,1.06,VWS V13.01,2013-07-13 01:43:00,
2013-07-12 21:49:00,69.6,69.3,29.83,NNE,17,8.1,20.1,99,0.31,, +RA,1.10,VWS V13.01,2013-07-13 01:49:00,
2013-07-12 21:55:00,69.6,69.3,29.83,ENE,61,9.8,9.8,99,0.28,, +RA,1.10,VWS V13.01,2013-07-13 01:55:00,
2013-07-12 22:00:00,69.6,69.3,29.83,NNW,341,0.0,15.7,99,0.28,, +RA,1.10,VWS V13.01,2013-07-13 02:00:00,
2013-07-12 22:06:00,69.6,69.3,29.83,NE,34,5.4,8.9,99,0.20,,RA,1.10,VWS V13.01,2013-07-13 02:06:00,
2013-07-12 22:12:00,69.4,69.2,29.83,North,11,5.4,8.1,99,0.16,,RA,1.10,VWS V13.01,2013-07-13 02:12:00,
2013-07-12 22:17:00,69.4,69.2,29.83,ENE,64,0.0,8.9,99,0.16,,RA,1.10,VWS V13.01,2013-07-13 02:17:00,
2013-07-12 22:22:00,69.4,69.2,29.85,ENE,77,8.1,9.8,99,0.08,,RA,1.10,VWS V13.01,2013-07-13 02:22:00,
2013-07-12 22:29:00,69.4,69.2,29.85,North,8,7.2,7.2,99,0.08,,RA,1.10,VWS V13.01,2013-07-13 02:29:00,
2013-07-12 22:37:00,69.3,69.0,29.85,North,6,8.9,18.3,99,0.04,,RA,1.10,VWS V13.01,2013-07-13 02:37:00,
2013-07-12 22:43:00,69.3,69.0,29.85,NNE,29,0.0,8.1,99,0.04,,RA,1.14,VWS V13.01,2013-07-13 02:43:00,
2013-07-12 22:49:00,69.3,69.0,29.83,NW,316,0.0,5.4,99,0.08,,RA,1.14,VWS V13.01,2013-07-13 02:49:00,
2013-07-12 22:55:00,69.3,69.0,29.83,NW,323,0.0,0.0,99,0.04,,RA,1.14,VWS V13.01,2013-07-13 02:55:00,
2013-07-12 23:01:00,69.3,69.0,29.83,NNW,342,0.0,13.4,99,0.04,,RA,1.14,VWS V13.01,2013-07-13 03:01:00,
2013-07-12 23:06:00,69.3,69.0,29.85,NNW,336,0.0,7.2,99,0.04,,RA,1.14,VWS V13.01,2013-07-13 03:06:00,
2013-07-12 23:12:00,69.3,69.0,29.85,North,0,5.4,7.2,99,0.04,,RA,1.14,VWS V13.01,2013-07-13 03:12:00,
2013-07-12 23:17:00,69.3,69.0,29.85,NNE,17,0.0,6.3,99,0.04,,RA,1.14,VWS V13.01,2013-07-13 03:17:00,
2013-07-12 23:22:00,69.3,69.0,29.85,NE,43,7.2,13.9,99,0.04,,RA,1.14,VWS V13.01,2013-07-13 03:22:00,
2013-07-12 23:27:00,69.3,69.0,29.85,NNE,31,13.4,13.4,99,0.04,,RA,1.14,VWS V13.01,2013-07-13 03:27:00,
2013-07-12 23:32:00,69.3,69.0,29.85,WSW,251,0.0,8.1,99,0.04,,RA,1.14,VWS V13.01,2013-07-13 03:32:00,
2013-07-12 23:38:00,69.3,69.0,29.85,ENE,70,0.0,7.2,99,0.04,,RA,1.14,VWS V13.01,2013-07-13 03:38:00,
2013-07-12 23:45:00,69.3,69.0,29.85,North,3,5.4,8.1,99,0.04,,RA,1.14,VWS V13.01,2013-07-13 03:45:00,
2013-07-12 23:53:00,69.3,69.0,29.85,ENE,60,7.2,9.8,99,0.00,,RA,1.14,VWS V13.01,2013-07-13 03:53:00,